Date,TemperatureHighF,TemperatureAvgF,TemperatureLowF,DewpointHighF,DewpointAvgF,DewpointLowF,HumidityHigh,HumidityAvg,HumidityLow,PressureMaxIn,PressureMinIn,WindSpeedMaxMPH,WindSpeedAvgMPH,GustSpeedMaxMPH,PrecipitationSumIn
2013-1-1,31.1,22.0,10.6,26.3,13.4,5.1,83,70,56,29.98,29.85,11,1,11,0.00
2013-1-2,29.0,18.3,6.8,20.0,12.4,3.2,88,78,66,30.04,29.91,6,1,6,0.00
2013-1-3,29.2,22.7,12.6,24.3,15.8,5.6,83,75,62,30.02,29.91,10,3,10,0.00
2013-1-4,28.8,25.1,20.5,22.1,18.0,14.6,81,74,65,30.03,29.92,14,6,16,0.00
2013-1-5,36.4,28.1,18.4,29.3,22.4,14.5,87,79,66,30.12,29.88,10,3,10,0.01
2013-1-6,38.3,34.0,31.0,32.1,28.9,25.8,86,82,74,30.10,29.76,12,3,12,0.02
2013-1-7,36.2,31.2,26.3,27.2,24.8,20.6,83,77,67,30.23,29.99,13,3,13,0.00
2013-1-8,43.0,31.2,23.4,31.5,24.7,19.5,85,77,61,30.10,30.00,6,2,8,0.00
2013-1-9,46.3,38.1,26.6,34.8,29.6,21.0,87,72,54,30.30,29.89,16,4,16,0.00
2013-1-10,39.6,31.3,22.7,32.9,26.9,19.4,91,84,71,30.39,29.98,9,2,9,0.04
2013-1-11,59.8,46.5,34.7,53.8,42.8,32.0,95,87,75,29.98,29.59,11,3,11,0.68
2013-1-12,61.6,52.6,46.6,52.9,48.1,43.8,94,85,71,29.79,29.62,9,2,9,0.21
2013-1-13,52.0,41.3,32.9,50.9,39.2,29.0,96,92,86,29.88,29.55,15,2,15,2.02
2013-1-14,32.8,25.8,18.5,29.0,19.5,14.7,89,77,66,30.26,29.88,11,2,11,0.00
2013-1-15,31.0,22.7,13.7,22.3,17.0,10.5,91,79,65,30.26,29.96,7,1,7,0.00
2013-1-16,37.1,29.5,21.2,26.5,21.6,17.9,88,73,50,29.96,29.68,15,3,15,0.00
2013-1-17,40.7,32.0,20.5,28.5,22.5,8.4,89,69,47,30.14,29.81,10,3,10,0.00
2013-1-18,35.6,28.9,20.3,23.9,18.6,10.5,79,65,56,30.27,29.84,13,4,13,0.00
2013-1-19,50.2,42.4,35.1,34.9,29.1,23.9,70,59,49,29.84,29.47,16,7,17,0.00
2013-1-20,43.7,25.8,18.9,34.8,12.8,6.1,71,58,47,30.01,29.47,14,5,17,0.00
2013-1-21,21.6,16.6,8.5,11.3,6.9,-0.1,83,65,54,29.98,29.79,13,4,14,0.00
2013-1-22,14.4,6.9,-0.4,4.8,-1.6,-8.8,82,68,57,30.13,29.93,9,2,10,0.00
2013-1-23,21.8,12.7,0.9,11.3,3.8,-5.6,81,68,50,30.12,29.89,9,2,9,0.00
2013-1-24,21.8,14.3,9.0,11.9,5.1,-1.9,85,68,37,30.40,29.91,8,2,8,0.01
2013-1-25,26.8,20.2,15.8,18.5,12.6,7.7,82,72,66,30.31,29.83,5,1,5,0.00
2013-1-26,29.2,23.5,15.1,19.8,16.2,9.2,86,74,53,30.27,29.87,8,2,8,0.01
2013-1-27,34.2,23.7,11.3,26.8,17.5,7.2,90,78,60,30.30,29.96,11,2,11,0.00
2013-1-28,50.0,42.3,32.4,47.2,39.7,27.0,94,90,80,29.96,29.70,12,4,12,0.12
2013-1-29,58.7,49.1,35.3,55.7,46.9,34.2,96,92,86,29.85,29.32,10,3,10,0.28
2013-1-30,62.1,52.0,34.2,57.2,48.2,26.8,92,87,76,29.32,28.98,17,5,17,0.57
2013-1-31,34.0,24.0,16.7,26.5,15.3,7.3,84,69,55,29.73,29.14,19,7,19,0.00
2013-2-1,16.9,15.1,12.8,10.4,9.3,7.6,81,77,74,29.95,29.73,14,5,14,0.00